Location: B?lite?ti
(46.2833°N, 22.7333°E)
Time: 17:24:04
(UTC+00:00)

SL-08 RB Rocket - Pass Details

Date: 24 January 2021
Orbit: 647 x 683 km, 97.8° (Epoch: 28 February)

Event Time Altitude Azimuth Distance (km) Brightness Sun altitude
Exits shadow 16:54:25 28° 77° (ENE) 1,243 4.5 -15.8°
Maximum altitude 16:54:52 28° 66° (ENE) 1,227 4.5 -15.9°
Drops below altitude 10° 16:58:42 10° 8° (N) 2,067 6.1 -16.6°
Sets 17:01:08 0° 357° (N) 2,979 7.0 -17.0°
